Year,Month,Day,Hour,Minute,Value (Times are PST for temperature in C)
2006,07,23,00,00,22.30
2006,07,23,00,01,22.30
2006,07,23,00,02,22.30
2006,07,23,00,03,22.30
2006,07,23,00,04,22.30
2006,07,23,00,05,22.20
2006,07,23,00,06,22.20
2006,07,23,00,07,22.20
2006,07,23,00,08,22.20
2006,07,23,00,09,22.20
2006,07,23,00,10,22.20
2006,07,23,00,11,22.20
2006,07,23,00,12,22.20
2006,07,23,00,13,22.20
2006,07,23,00,14,22.10
2006,07,23,00,15,22.10
2006,07,23,00,16,22.10
2006,07,23,00,17,22.10
2006,07,23,00,18,22.00
2006,07,23,00,19,22.00
2006,07,23,00,20,21.90
2006,07,23,00,21,21.80
2006,07,23,00,22,21.70
2006,07,23,00,23,21.70
2006,07,23,00,24,21.70
2006,07,23,00,25,21.70
2006,07,23,00,26,21.70
2006,07,23,00,27,21.70
2006,07,23,00,28,21.70
2006,07,23,00,29,21.70
2006,07,23,00,30,21.70
2006,07,23,00,31,21.60
2006,07,23,00,32,21.60
2006,07,23,00,33,21.60
2006,07,23,00,34,21.60
2006,07,23,00,35,21.60
2006,07,23,00,36,21.60
2006,07,23,00,37,21.60
2006,07,23,00,38,21.60
2006,07,23,00,39,21.50
2006,07,23,00,40,21.40
2006,07,23,00,41,21.40
2006,07,23,00,42,21.40
2006,07,23,00,43,21.40
2006,07,23,00,44,21.30
2006,07,23,00,45,21.30
2006,07,23,00,46,21.30
2006,07,23,00,47,21.10
2006,07,23,00,48,21.00
2006,07,23,00,49,20.90
2006,07,23,00,50,20.80
2006,07,23,00,51,20.80
2006,07,23,00,52,20.20
2006,07,23,00,53,19.90
2006,07,23,00,54,19.60
2006,07,23,00,55,19.40
2006,07,23,00,56,19.20
2006,07,23,00,57,19.00
2006,07,23,00,58,18.70
2006,07,23,00,59,18.60
2006,07,23,01,00,18.40
2006,07,23,01,01,18.20
2006,07,23,01,02,18.10
2006,07,23,01,03,17.90
2006,07,23,01,04,17.80
2006,07,23,01,05,17.60
2006,07,23,01,06,17.50
2006,07,23,01,07,17.30
2006,07,23,01,08,17.30
2006,07,23,01,09,17.20
2006,07,23,01,10,17.10
2006,07,23,01,11,17.00
2006,07,23,01,12,16.90
2006,07,23,01,13,16.80
2006,07,23,01,14,16.70
2006,07,23,01,15,16.70
2006,07,23,01,16,16.70
2006,07,23,01,17,16.70
2006,07,23,01,18,16.60
2006,07,23,01,19,16.60
2006,07,23,01,20,16.50
2006,07,23,01,21,16.40
2006,07,23,01,22,16.40
2006,07,23,01,23,16.30
2006,07,23,01,24,16.30
2006,07,23,01,25,16.30
2006,07,23,01,26,16.20
2006,07,23,01,27,16.20
2006,07,23,01,28,16.10
2006,07,23,01,29,16.10
2006,07,23,01,30,16.10
2006,07,23,01,31,16.10
2006,07,23,01,32,15.90
2006,07,23,01,33,15.90
2006,07,23,01,34,15.80
2006,07,23,01,35,15.70
2006,07,23,01,36,15.60
2006,07,23,01,37,15.60
2006,07,23,01,38,15.50
2006,07,23,01,39,15.50
2006,07,23,01,40,15.40
2006,07,23,01,41,15.40
2006,07,23,01,42,15.30
2006,07,23,01,43,15.30
2006,07,23,01,44,15.30
2006,07,23,01,45,15.30
2006,07,23,01,46,15.30
2006,07,23,01,47,15.30
2006,07,23,01,48,15.30
2006,07,23,01,49,15.30
2006,07,23,01,50,15.30
2006,07,23,01,51,15.30
2006,07,23,01,52,15.30
2006,07,23,01,53,15.30
2006,07,23,01,54,15.30
2006,07,23,01,55,15.30
2006,07,23,01,56,15.30
2006,07,23,01,57,15.30
2006,07,23,01,58,15.20
2006,07,23,01,59,15.20
2006,07,23,02,00,15.10
2006,07,23,02,01,15.10
2006,07,23,02,02,15.00
2006,07,23,02,03,15.00
2006,07,23,02,04,15.00
2006,07,23,02,05,14.90
2006,07,23,02,06,14.90
2006,07,23,02,07,14.90
2006,07,23,02,08,14.90
2006,07,23,02,09,14.90
2006,07,23,02,10,14.90
2006,07,23,02,11,14.90
2006,07,23,02,12,14.90
2006,07,23,02,13,14.90
2006,07,23,02,14,14.90
2006,07,23,02,15,14.90
2006,07,23,02,16,14.90
2006,07,23,02,17,14.90
2006,07,23,02,18,14.90
2006,07,23,02,19,14.90
2006,07,23,02,20,14.90
2006,07,23,02,21,14.90
2006,07,23,02,22,14.90
2006,07,23,02,23,14.90
2006,07,23,02,24,14.90
2006,07,23,02,25,14.80
2006,07,23,02,26,14.80
2006,07,23,02,27,14.80
2006,07,23,02,28,14.80
2006,07,23,02,29,14.80
2006,07,23,02,30,14.70
2006,07,23,02,31,14.70
2006,07,23,02,32,14.70
2006,07,23,02,33,14.70
2006,07,23,02,34,14.70
2006,07,23,02,35,14.70
2006,07,23,02,36,14.60
2006,07,23,02,37,14.60
2006,07,23,02,38,14.60
2006,07,23,02,39,14.60
2006,07,23,02,40,14.70
2006,07,23,02,41,14.70
2006,07,23,02,42,14.70
2006,07,23,02,43,14.70
2006,07,23,02,44,14.70
2006,07,23,02,45,14.80
2006,07,23,02,46,14.80
2006,07,23,02,47,14.80
2006,07,23,02,48,14.80
2006,07,23,02,49,14.80
2006,07,23,02,50,14.80
2006,07,23,02,51,14.80
2006,07,23,02,52,14.90
2006,07,23,02,53,14.90
2006,07,23,02,54,15.00
2006,07,23,02,55,15.00
2006,07,23,02,56,15.00
2006,07,23,02,57,15.10
2006,07,23,02,58,15.10
2006,07,23,02,59,15.20
2006,07,23,03,00,15.20
2006,07,23,03,01,15.20
2006,07,23,03,02,15.20
2006,07,23,03,03,15.30
2006,07,23,03,04,15.30
2006,07,23,03,05,15.30
2006,07,23,03,06,15.30
2006,07,23,03,07,15.30
2006,07,23,03,08,15.30
2006,07,23,03,09,15.30
2006,07,23,03,10,15.30
2006,07,23,03,11,15.30
2006,07,23,03,12,15.30
2006,07,23,03,13,15.40
2006,07,23,03,14,15.40
2006,07,23,03,15,15.40
2006,07,23,03,16,15.40
2006,07,23,03,17,15.40
2006,07,23,03,18,15.40
2006,07,23,03,19,15.50
2006,07,23,03,20,15.50
2006,07,23,03,21,15.50
2006,07,23,03,22,15.50
2006,07,23,03,23,15.50
2006,07,23,03,24,15.50
2006,07,23,03,25,15.40
2006,07,23,03,26,15.40
2006,07,23,03,27,15.40
2006,07,23,03,28,15.40
2006,07,23,03,29,15.40
2006,07,23,03,30,15.40
2006,07,23,03,31,15.40
2006,07,23,03,32,15.40
2006,07,23,03,33,15.30
2006,07,23,03,34,15.30
2006,07,23,03,35,15.30
2006,07,23,03,36,15.30
2006,07,23,03,37,15.30
2006,07,23,03,38,15.30
2006,07,23,03,39,15.30
2006,07,23,03,40,15.30
2006,07,23,03,41,15.30
2006,07,23,03,42,15.30
2006,07,23,03,43,15.30
2006,07,23,03,44,15.30
2006,07,23,03,45,15.30
2006,07,23,03,46,15.30
2006,07,23,03,47,15.30
2006,07,23,03,48,15.30
2006,07,23,03,49,15.30
2006,07,23,03,50,15.30
2006,07,23,03,51,15.30
2006,07,23,03,52,15.30
2006,07,23,03,53,15.30
2006,07,23,03,54,15.30
2006,07,23,03,55,15.30
2006,07,23,03,56,15.30
2006,07,23,03,57,15.30
2006,07,23,03,58,15.30
2006,07,23,03,59,15.30
2006,07,23,04,00,15.30
2006,07,23,04,01,15.30
2006,07,23,04,02,15.20
2006,07,23,04,03,15.20
2006,07,23,04,04,15.20
2006,07,23,04,05,15.20
2006,07,23,04,06,15.20
2006,07,23,04,07,15.20
2006,07,23,04,08,15.20
2006,07,23,04,09,15.20
2006,07,23,04,10,15.20
2006,07,23,04,11,15.20
2006,07,23,04,12,15.20
2006,07,23,04,13,15.20
2006,07,23,04,14,15.20
2006,07,23,04,15,15.20
2006,07,23,04,16,15.20
2006,07,23,04,17,15.10
2006,07,23,04,18,15.10
2006,07,23,04,19,15.10
2006,07,23,04,20,15.10
2006,07,23,04,21,15.10
2006,07,23,04,22,15.10
2006,07,23,04,23,15.10
2006,07,23,04,24,15.10
2006,07,23,04,25,15.10
2006,07,23,04,26,15.10
2006,07,23,04,27,15.10
2006,07,23,04,28,15.10
2006,07,23,04,29,15.10
2006,07,23,04,30,15.10
2006,07,23,04,31,15.10
2006,07,23,04,32,15.10
2006,07,23,04,33,15.10
2006,07,23,04,34,15.10
2006,07,23,04,35,15.10
2006,07,23,04,36,15.10
2006,07,23,04,37,15.10
2006,07,23,04,38,15.10
2006,07,23,04,39,15.10
2006,07,23,04,40,15.10
2006,07,23,04,41,15.20
2006,07,23,04,42,15.20
2006,07,23,04,43,15.20
2006,07,23,04,44,15.20
2006,07,23,04,45,15.30
2006,07,23,04,46,15.30
2006,07,23,04,47,15.30
2006,07,23,04,48,15.30
2006,07,23,04,49,15.30
2006,07,23,04,50,15.30
2006,07,23,04,51,15.30
2006,07,23,04,52,15.30
2006,07,23,04,53,15.30
2006,07,23,04,54,15.30
2006,07,23,04,55,15.30
2006,07,23,04,56,15.30
2006,07,23,04,57,15.30
2006,07,23,04,58,15.30
2006,07,23,04,59,15.40
2006,07,23,05,00,15.40
2006,07,23,05,01,15.40
2006,07,23,05,02,15.40
2006,07,23,05,03,15.40
2006,07,23,05,04,15.40
2006,07,23,05,05,15.40
2006,07,23,05,06,15.50
2006,07,23,05,07,15.50
2006,07,23,05,08,15.50
2006,07,23,05,09,15.50
2006,07,23,05,10,15.50
2006,07,23,05,11,15.60
2006,07,23,05,12,15.60
2006,07,23,05,13,15.60
2006,07,23,05,14,15.60
2006,07,23,05,15,15.60
2006,07,23,05,16,15.60
2006,07,23,05,17,15.70
2006,07,23,05,18,15.70
2006,07,23,05,19,15.80
2006,07,23,05,20,15.80
2006,07,23,05,21,15.80
2006,07,23,05,22,15.80
2006,07,23,05,23,15.80
2006,07,23,05,24,15.80
2006,07,23,05,25,15.80
2006,07,23,05,26,15.80
2006,07,23,05,27,15.80
2006,07,23,05,28,15.70
2006,07,23,05,29,15.70
2006,07,23,05,30,15.70
2006,07,23,05,31,15.70
2006,07,23,05,32,15.70
2006,07,23,05,33,15.80
2006,07,23,05,34,15.80
2006,07,23,05,35,15.80
2006,07,23,05,36,15.80
2006,07,23,05,37,15.80
2006,07,23,05,38,15.90
2006,07,23,05,39,15.90
2006,07,23,05,40,15.90
2006,07,23,05,41,16.00
2006,07,23,05,42,16.10
2006,07,23,05,43,16.10
2006,07,23,05,44,16.10
2006,07,23,05,45,16.10
2006,07,23,05,46,16.10
2006,07,23,05,47,16.20
2006,07,23,05,48,16.20
2006,07,23,05,49,16.20
2006,07,23,05,50,16.20
2006,07,23,05,51,16.10
2006,07,23,05,52,16.10
2006,07,23,05,53,16.10
2006,07,23,05,54,16.10
2006,07,23,05,55,16.10
2006,07,23,05,56,16.10
2006,07,23,05,57,16.10
2006,07,23,05,58,16.10
2006,07,23,05,59,16.10
2006,07,23,06,00,16.10
2006,07,23,06,01,16.10
2006,07,23,06,02,16.10
2006,07,23,06,03,16.10
2006,07,23,06,04,16.10
2006,07,23,06,05,16.10
2006,07,23,06,06,16.20
2006,07,23,06,07,16.20
2006,07,23,06,08,16.20
2006,07,23,06,09,16.30
2006,07,23,06,10,16.30
2006,07,23,06,11,16.30
2006,07,23,06,12,16.40
2006,07,23,06,13,16.40
2006,07,23,06,14,16.50
2006,07,23,06,15,16.60
2006,07,23,06,16,16.60
2006,07,23,06,17,16.70
2006,07,23,06,18,16.80
2006,07,23,06,19,16.90
2006,07,23,06,20,17.00
2006,07,23,06,21,17.20
2006,07,23,06,22,17.20
2006,07,23,06,23,17.30
2006,07,23,06,24,17.40
2006,07,23,06,25,17.40
2006,07,23,06,26,17.60
2006,07,23,06,27,17.70
2006,07,23,06,28,17.90
2006,07,23,06,29,18.10
2006,07,23,06,30,18.20
2006,07,23,06,31,18.30
2006,07,23,06,32,18.50
2006,07,23,06,33,18.50
2006,07,23,06,34,18.60
2006,07,23,06,35,18.60
2006,07,23,06,36,18.70
2006,07,23,06,37,18.80
2006,07,23,06,38,18.90
2006,07,23,06,39,18.90
2006,07,23,06,40,18.90
2006,07,23,06,41,18.90
2006,07,23,06,42,19.00
2006,07,23,06,43,19.10
2006,07,23,06,44,19.10
2006,07,23,06,45,19.10
2006,07,23,06,46,19.10
2006,07,23,06,47,19.10
2006,07,23,06,48,19.10
2006,07,23,06,49,19.20
2006,07,23,06,50,19.20
2006,07,23,06,51,19.20
2006,07,23,06,52,19.20
2006,07,23,06,53,19.20
2006,07,23,06,54,19.20
2006,07,23,06,55,19.30
2006,07,23,06,56,19.30
2006,07,23,06,57,19.40
2006,07,23,06,58,19.40
2006,07,23,06,59,19.40
2006,07,23,07,00,19.40
2006,07,23,07,01,19.50
2006,07,23,07,02,19.50
2006,07,23,07,03,19.60
2006,07,23,07,04,19.60
2006,07,23,07,05,19.70
2006,07,23,07,06,19.70
2006,07,23,07,07,19.80
2006,07,23,07,08,19.90
2006,07,23,07,09,19.90
2006,07,23,07,10,20.10
2006,07,23,07,11,20.20
2006,07,23,07,12,20.20
2006,07,23,07,13,20.20
2006,07,23,07,14,20.30
2006,07,23,07,15,20.30
2006,07,23,07,16,20.40
2006,07,23,07,17,20.40
2006,07,23,07,18,20.40
2006,07,23,07,19,20.40
2006,07,23,07,20,20.50
2006,07,23,07,21,20.50
2006,07,23,07,22,20.40
2006,07,23,07,23,20.40
2006,07,23,07,24,20.40
2006,07,23,07,25,20.50
2006,07,23,07,26,20.50
2006,07,23,07,27,20.50
2006,07,23,07,28,20.50
2006,07,23,07,29,20.60
2006,07,23,07,30,20.60
2006,07,23,07,31,20.60
2006,07,23,07,32,20.70
2006,07,23,07,33,20.80
2006,07,23,07,34,20.80
2006,07,23,07,35,20.90
2006,07,23,07,36,20.90
2006,07,23,07,37,21.00
2006,07,23,07,38,21.00
2006,07,23,07,39,21.00
2006,07,23,07,40,21.10
2006,07,23,07,41,21.10
2006,07,23,07,42,21.10
2006,07,23,07,43,21.20
2006,07,23,07,44,21.20
2006,07,23,07,45,21.20
2006,07,23,07,46,21.20
2006,07,23,07,47,21.10
2006,07,23,07,48,21.10
2006,07,23,07,49,21.00
2006,07,23,07,50,21.00
2006,07,23,07,51,21.00
2006,07,23,07,52,21.00
2006,07,23,07,53,20.90
2006,07,23,07,54,20.90
2006,07,23,07,55,20.80
2006,07,23,07,56,20.80
2006,07,23,07,57,20.80
2006,07,23,07,58,20.80
2006,07,23,07,59,20.80
2006,07,23,08,00,20.80
2006,07,23,08,01,20.70
2006,07,23,08,02,20.70
2006,07,23,08,03,20.60
2006,07,23,08,04,20.40
2006,07,23,08,05,20.20
2006,07,23,08,06,20.00
2006,07,23,08,07,19.90
2006,07,23,08,08,19.60
2006,07,23,08,09,19.40
2006,07,23,08,10,19.30
2006,07,23,08,11,19.20
2006,07,23,08,12,19.10
2006,07,23,08,13,19.10
2006,07,23,08,14,19.10
2006,07,23,08,15,19.10
2006,07,23,08,16,19.10
2006,07,23,08,17,19.10
2006,07,23,08,18,19.10
2006,07,23,08,19,19.00
2006,07,23,08,20,18.90
2006,07,23,08,21,18.90
2006,07,23,08,22,18.90
2006,07,23,08,23,18.90
2006,07,23,08,24,19.00
2006,07,23,08,25,19.10
2006,07,23,08,26,19.10
2006,07,23,08,27,19.30
2006,07,23,08,28,19.40
2006,07,23,08,29,19.50
2006,07,23,08,30,19.60
2006,07,23,08,31,19.70
2006,07,23,08,32,19.80
2006,07,23,08,33,19.90
2006,07,23,08,34,19.90
2006,07,23,08,35,20.10
2006,07,23,08,36,20.20
2006,07,23,08,37,20.20
2006,07,23,08,38,20.30
2006,07,23,08,39,20.40
2006,07,23,08,40,20.50
2006,07,23,08,41,20.60
2006,07,23,08,42,20.70
2006,07,23,08,43,20.80
2006,07,23,08,44,20.70
2006,07,23,08,45,20.70
2006,07,23,08,46,20.60
2006,07,23,08,47,20.60
2006,07,23,08,48,20.60
2006,07,23,08,49,20.70
2006,07,23,08,50,20.70
2006,07,23,08,51,20.70
2006,07,23,08,52,20.70
2006,07,23,08,53,20.60
2006,07,23,08,54,20.60
2006,07,23,08,55,20.60
2006,07,23,08,56,20.70
2006,07,23,08,57,20.70
2006,07,23,08,58,20.80
2006,07,23,08,59,20.80
2006,07,23,09,00,20.90
2006,07,23,09,01,20.90
2006,07,23,09,02,21.00
2006,07,23,09,03,21.10
2006,07,23,09,04,21.20
2006,07,23,09,05,21.30
2006,07,23,09,06,21.30
2006,07,23,09,07,21.40
2006,07,23,09,08,21.40
2006,07,23,09,09,21.50
2006,07,23,09,10,21.60
2006,07,23,09,11,21.50
2006,07,23,09,12,21.40
2006,07,23,09,13,21.30
2006,07,23,09,14,21.40
2006,07,23,09,15,21.50
2006,07,23,09,16,21.60
2006,07,23,09,17,21.70
2006,07,23,09,18,21.70
2006,07,23,09,19,21.90
2006,07,23,09,20,22.00
2006,07,23,09,21,22.00
2006,07,23,09,22,22.00
2006,07,23,09,23,22.00
2006,07,23,09,24,22.10
2006,07,23,09,25,22.50
2006,07,23,09,26,22.60
2006,07,23,09,27,22.70
2006,07,23,09,28,22.80
2006,07,23,09,29,22.90
2006,07,23,09,30,23.00
2006,07,23,09,31,23.10
2006,07,23,09,32,23.20
2006,07,23,09,33,23.30
2006,07,23,09,34,23.40
2006,07,23,09,35,23.60
2006,07,23,09,36,23.60
2006,07,23,09,37,23.70
2006,07,23,09,38,23.70
2006,07,23,09,39,23.90
2006,07,23,09,40,23.90
2006,07,23,09,41,24.10
2006,07,23,09,42,24.10
2006,07,23,09,43,24.20
2006,07,23,09,44,24.30
2006,07,23,09,45,24.40
2006,07,23,09,46,24.40
2006,07,23,09,47,24.50
2006,07,23,09,48,24.50
2006,07,23,09,49,24.50
2006,07,23,09,50,24.50
2006,07,23,09,51,24.60
2006,07,23,09,52,24.70
2006,07,23,09,53,24.80
2006,07,23,09,54,24.80
2006,07,23,09,55,24.90
2006,07,23,09,56,25.00
2006,07,23,09,57,25.10
2006,07,23,09,58,25.10
2006,07,23,09,59,25.10
2006,07,23,10,00,25.20
2006,07,23,10,01,25.30
2006,07,23,10,02,25.30
2006,07,23,10,03,25.30
2006,07,23,10,04,25.20
2006,07,23,10,05,25.20
2006,07,23,10,06,25.00
2006,07,23,10,07,25.00
2006,07,23,10,08,24.90
2006,07,23,10,09,24.90
2006,07,23,10,10,24.90
2006,07,23,10,11,24.80
2006,07,23,10,12,24.90
2006,07,23,10,13,24.80
2006,07,23,10,14,24.80
2006,07,23,10,15,24.70
2006,07,23,10,16,24.70
2006,07,23,10,17,24.70
2006,07,23,10,18,24.70
2006,07,23,10,19,24.70
2006,07,23,10,20,24.80
2006,07,23,10,21,24.80
2006,07,23,10,22,24.80
2006,07,23,10,23,24.80
2006,07,23,10,24,24.90
2006,07,23,10,25,25.00
2006,07,23,10,26,25.00
2006,07,23,10,27,25.10
2006,07,23,10,28,25.20
2006,07,23,10,29,25.20
2006,07,23,10,30,25.30
2006,07,23,10,31,25.30
2006,07,23,10,32,25.30
2006,07,23,10,33,25.40
2006,07,23,10,34,25.40
2006,07,23,10,35,25.30
2006,07,23,10,36,25.30
2006,07,23,10,37,25.30
2006,07,23,10,38,25.30
2006,07,23,10,39,25.30
2006,07,23,10,40,25.40
2006,07,23,10,41,25.40
2006,07,23,10,42,25.50
2006,07,23,10,43,25.50
2006,07,23,10,44,25.50
2006,07,23,10,45,25.50
2006,07,23,10,46,25.40
2006,07,23,10,47,25.30
2006,07,23,10,48,25.20
2006,07,23,10,49,25.20
2006,07,23,10,50,25.30
2006,07,23,10,51,25.30
2006,07,23,10,52,25.40
2006,07,23,10,53,25.30
2006,07,23,10,54,25.20
2006,07,23,10,55,25.20
2006,07,23,10,56,25.10
2006,07,23,10,57,25.00
2006,07,23,10,58,25.00
2006,07,23,10,59,25.00
2006,07,23,11,00,24.90
2006,07,23,11,01,24.90
2006,07,23,11,02,24.80
2006,07,23,11,03,24.80
2006,07,23,11,04,24.80
2006,07,23,11,05,24.80
2006,07,23,11,06,24.80
2006,07,23,11,07,24.80
2006,07,23,11,08,24.90
2006,07,23,11,09,24.90
2006,07,23,11,10,25.00
2006,07,23,11,11,25.00
2006,07,23,11,12,25.00
2006,07,23,11,13,25.00
2006,07,23,11,14,25.10
2006,07,23,11,15,25.10
2006,07,23,11,16,25.00
2006,07,23,11,17,24.90
2006,07,23,11,18,24.90
2006,07,23,11,19,24.90
2006,07,23,11,20,24.90
2006,07,23,11,21,24.90
2006,07,23,11,22,24.90
2006,07,23,11,23,24.90
2006,07,23,11,24,24.90
2006,07,23,11,25,24.90
2006,07,23,11,26,24.80
2006,07,23,11,27,24.70
2006,07,23,11,28,24.70
2006,07,23,11,29,24.70
2006,07,23,11,30,24.70
2006,07,23,11,31,24.80
2006,07,23,11,32,24.80
2006,07,23,11,33,24.90
2006,07,23,11,34,25.10
2006,07,23,11,35,25.20
2006,07,23,11,36,25.30
2006,07,23,11,37,25.40
2006,07,23,11,38,25.40
2006,07,23,11,39,25.40
2006,07,23,11,40,25.50
2006,07,23,11,41,25.80
2006,07,23,11,42,25.90
2006,07,23,11,43,26.00
2006,07,23,11,44,26.20
2006,07,23,11,45,26.40
2006,07,23,11,46,26.40
2006,07,23,11,47,26.60
2006,07,23,11,48,26.60
2006,07,23,11,49,26.60
2006,07,23,11,50,26.60
2006,07,23,11,51,26.50
2006,07,23,11,52,26.40
2006,07,23,11,53,26.40
2006,07,23,11,54,26.40
2006,07,23,11,55,26.40
2006,07,23,11,56,26.40
2006,07,23,11,57,26.40
2006,07,23,11,58,26.40
2006,07,23,11,59,26.50
2006,07,23,12,00,26.60
2006,07,23,12,01,26.60
2006,07,23,12,02,26.60
2006,07,23,12,03,26.70
2006,07,23,12,04,26.80
2006,07,23,12,05,26.80
2006,07,23,12,06,26.80
2006,07,23,12,07,26.80
2006,07,23,12,08,26.80
2006,07,23,12,09,26.80
2006,07,23,12,10,27.00
2006,07,23,12,11,27.10
2006,07,23,12,12,27.20
2006,07,23,12,13,27.30
2006,07,23,12,14,27.30
2006,07,23,12,15,27.40
2006,07,23,12,16,27.60
2006,07,23,12,17,27.70
2006,07,23,12,18,27.60
2006,07,23,12,19,27.40
2006,07,23,12,20,27.30
2006,07,23,12,21,27.30
2006,07,23,12,22,27.30
2006,07,23,12,23,27.10
2006,07,23,12,24,27.10
2006,07,23,12,25,27.20
2006,07,23,12,26,27.20
2006,07,23,12,27,27.00
2006,07,23,12,28,26.90
2006,07,23,12,29,26.60
2006,07,23,12,30,26.40
2006,07,23,12,31,26.20
2006,07,23,12,32,26.10
2006,07,23,12,33,26.10
2006,07,23,12,34,26.10
2006,07,23,12,35,26.10
2006,07,23,12,36,26.00
2006,07,23,12,37,25.90
2006,07,23,12,38,26.00
2006,07,23,12,39,25.90
2006,07,23,12,40,25.80
2006,07,23,12,41,25.60
2006,07,23,12,42,25.50
2006,07,23,12,43,25.40
2006,07,23,12,44,25.30
2006,07,23,12,45,25.40
2006,07,23,12,46,25.40
2006,07,23,12,47,25.50
2006,07,23,12,48,25.60
2006,07,23,12,49,25.70
2006,07,23,12,50,25.80
2006,07,23,12,51,25.90
2006,07,23,12,52,25.90
2006,07,23,12,53,25.80
2006,07,23,12,54,25.80
2006,07,23,12,55,25.80
2006,07,23,12,56,25.80
2006,07,23,12,57,25.70
2006,07,23,12,58,25.80
2006,07,23,12,59,25.80
2006,07,23,13,00,25.80
2006,07,23,13,01,25.90
2006,07,23,13,02,26.00
2006,07,23,13,03,26.20
2006,07,23,13,04,26.30
2006,07,23,13,05,26.40
2006,07,23,13,06,26.40
2006,07,23,13,07,26.30
2006,07,23,13,08,26.30
2006,07,23,13,09,26.20
2006,07,23,13,10,26.00
2006,07,23,13,11,25.90
2006,07,23,13,12,25.90
2006,07,23,13,13,25.90
2006,07,23,13,14,26.00
2006,07,23,13,15,26.00
2006,07,23,13,16,26.00
2006,07,23,13,17,26.10
2006,07,23,13,18,26.20
2006,07,23,13,19,26.30
2006,07,23,13,20,26.40
2006,07,23,13,21,26.40
2006,07,23,13,22,26.40
2006,07,23,13,23,26.40
2006,07,23,13,24,26.40
2006,07,23,13,25,26.30
2006,07,23,13,26,26.30
2006,07,23,13,27,26.40
2006,07,23,13,28,26.50
2006,07,23,13,29,26.60
2006,07,23,13,30,26.70
2006,07,23,13,31,26.80
2006,07,23,13,32,26.80
2006,07,23,13,33,26.90
2006,07,23,13,34,27.00
2006,07,23,13,35,27.10
2006,07,23,13,36,27.10
2006,07,23,13,37,27.20
2006,07,23,13,38,27.30
2006,07,23,13,39,27.30
2006,07,23,13,40,27.30
2006,07,23,13,41,27.20
2006,07,23,13,42,27.10
2006,07,23,13,43,27.00
2006,07,23,13,44,26.90
2006,07,23,13,45,26.90
2006,07,23,13,46,26.90
2006,07,23,13,47,26.80
2006,07,23,13,48,26.80
2006,07,23,13,49,26.60
2006,07,23,13,50,26.40
2006,07,23,13,51,26.30
2006,07,23,13,52,26.30
2006,07,23,13,53,26.20
2006,07,23,13,54,26.10
2006,07,23,13,55,26.20
2006,07,23,13,56,26.20
2006,07,23,13,57,26.20
2006,07,23,13,58,26.20
2006,07,23,13,59,26.30
2006,07,23,14,00,26.40
2006,07,23,14,01,26.40
2006,07,23,14,02,26.40
2006,07,23,14,03,26.20
2006,07,23,14,04,26.10
2006,07,23,14,05,26.00
2006,07,23,14,06,26.10
2006,07,23,14,07,26.20
2006,07,23,14,08,26.20
2006,07,23,14,09,26.10
2006,07,23,14,10,26.00
2006,07,23,14,11,26.00
2006,07,23,14,12,26.00
2006,07,23,14,13,26.10
2006,07,23,14,14,26.10
2006,07,23,14,15,26.20
2006,07,23,14,16,26.20
2006,07,23,14,17,26.20
2006,07,23,14,18,26.30
2006,07,23,14,19,26.50
2006,07,23,14,20,26.60
2006,07,23,14,21,26.70
2006,07,23,14,22,26.70
2006,07,23,14,23,26.90
2006,07,23,14,24,26.90
2006,07,23,14,25,27.00
2006,07,23,14,26,27.10
2006,07,23,14,27,27.10
2006,07,23,14,28,27.10
2006,07,23,14,29,27.00
2006,07,23,14,30,26.90
2006,07,23,14,31,26.90
2006,07,23,14,32,27.00
2006,07,23,14,33,27.10
2006,07,23,14,34,27.20
2006,07,23,14,35,27.30
2006,07,23,14,36,27.30
2006,07,23,14,37,27.20
2006,07,23,14,38,27.10
2006,07,23,14,39,26.90
2006,07,23,14,40,26.80
2006,07,23,14,41,26.80
2006,07,23,14,42,26.80
2006,07,23,14,43,26.80
2006,07,23,14,44,26.80
2006,07,23,14,45,26.80
2006,07,23,14,46,26.80
2006,07,23,14,47,26.80
2006,07,23,14,48,26.80
2006,07,23,14,49,26.80
2006,07,23,14,50,26.80
2006,07,23,14,51,26.80
2006,07,23,14,52,26.70
2006,07,23,14,53,26.70
2006,07,23,14,54,26.70
2006,07,23,14,55,26.70
2006,07,23,14,56,26.60
2006,07,23,14,57,26.60
2006,07,23,14,58,26.60
2006,07,23,14,59,26.60
2006,07,23,15,00,26.70
2006,07,23,15,01,26.80
2006,07,23,15,02,26.80
2006,07,23,15,03,27.00
2006,07,23,15,04,27.10
2006,07,23,15,05,27.10
2006,07,23,15,06,27.10
2006,07,23,15,07,27.20
2006,07,23,15,08,27.30
2006,07,23,15,09,27.30
2006,07,23,15,10,27.30
2006,07,23,15,11,27.30
2006,07,23,15,12,27.30
2006,07,23,15,13,27.50
2006,07,23,15,14,27.60
2006,07,23,15,15,27.60
2006,07,23,15,16,27.60
2006,07,23,15,17,27.70
2006,07,23,15,18,27.60
2006,07,23,15,19,27.60
2006,07,23,15,20,27.60
2006,07,23,15,21,27.50
2006,07,23,15,22,27.40
2006,07,23,15,23,27.40
2006,07,23,15,24,27.40
2006,07,23,15,25,27.50
2006,07,23,15,26,27.60
2006,07,23,15,27,27.50
2006,07,23,15,28,27.40
2006,07,23,15,29,27.30
2006,07,23,15,30,27.30
2006,07,23,15,31,27.30
2006,07,23,15,32,27.20
2006,07,23,15,33,27.10
2006,07,23,15,34,27.10
2006,07,23,15,35,27.10
2006,07,23,15,36,27.00
2006,07,23,15,37,26.90
2006,07,23,15,38,26.90
2006,07,23,15,39,27.00
2006,07,23,15,40,27.10
2006,07,23,15,41,27.10
2006,07,23,15,42,27.10
2006,07,23,15,43,27.10
2006,07,23,15,44,27.00
2006,07,23,15,45,26.90
2006,07,23,15,46,26.90
2006,07,23,15,47,26.80
2006,07,23,15,48,26.80
2006,07,23,15,49,26.80
2006,07,23,15,50,26.90
2006,07,23,15,51,27.00
2006,07,23,15,52,27.10
2006,07,23,15,53,27.20
2006,07,23,15,54,27.20
2006,07,23,15,55,27.30
2006,07,23,15,56,27.30
2006,07,23,15,57,27.40
2006,07,23,15,58,27.40
2006,07,23,15,59,27.50
2006,07,23,16,00,27.60
2006,07,23,16,01,27.60
2006,07,23,16,02,27.70
2006,07,23,16,03,27.70
2006,07,23,16,04,27.70
2006,07,23,16,05,27.80
2006,07,23,16,06,27.80
2006,07,23,16,07,27.80
2006,07,23,16,08,27.80
2006,07,23,16,09,27.80
2006,07,23,16,10,27.80
2006,07,23,16,11,27.80
2006,07,23,16,12,27.80
2006,07,23,16,13,28.00
2006,07,23,16,14,28.00
2006,07,23,16,15,28.00
2006,07,23,16,16,28.10
2006,07,23,16,17,28.10
2006,07,23,16,18,28.20
2006,07,23,16,19,28.20
2006,07,23,16,20,28.20
2006,07,23,16,21,28.20
2006,07,23,16,22,28.20
2006,07,23,16,23,28.30
2006,07,23,16,24,28.50
2006,07,23,16,25,28.60
2006,07,23,16,26,28.60
2006,07,23,16,27,28.60
2006,07,23,16,28,28.60
2006,07,23,16,29,28.60
2006,07,23,16,30,28.60
2006,07,23,16,31,28.60
2006,07,23,16,32,28.60
2006,07,23,16,33,28.60
2006,07,23,16,34,28.60
2006,07,23,16,35,28.50
2006,07,23,16,36,28.60
2006,07,23,16,37,28.60
2006,07,23,16,38,28.60
2006,07,23,16,39,28.60
2006,07,23,16,40,28.70
2006,07,23,16,41,28.60
2006,07,23,16,42,28.60
2006,07,23,16,43,28.60
2006,07,23,16,44,28.60
2006,07,23,16,45,28.80
2006,07,23,16,46,28.90
2006,07,23,16,47,28.90
2006,07,23,16,48,28.90
2006,07,23,16,49,28.90
2006,07,23,16,50,28.90
2006,07,23,16,51,28.90
2006,07,23,16,52,28.90
2006,07,23,16,53,28.90
2006,07,23,16,54,28.90
2006,07,23,16,55,29.00
2006,07,23,16,56,29.10
2006,07,23,16,57,29.10
2006,07,23,16,58,29.10
2006,07,23,16,59,29.10
2006,07,23,17,00,29.00
2006,07,23,17,01,28.90
2006,07,23,17,02,28.90
2006,07,23,17,03,28.90
2006,07,23,17,04,28.90
2006,07,23,17,05,28.90
2006,07,23,17,06,28.90
2006,07,23,17,07,28.90
2006,07,23,17,08,28.90
2006,07,23,17,09,28.90
2006,07,23,17,10,28.90
2006,07,23,17,11,28.90
2006,07,23,17,12,28.90
2006,07,23,17,13,28.90
2006,07,23,17,14,28.90
2006,07,23,17,15,28.90
2006,07,23,17,16,28.90
2006,07,23,17,17,29.00
2006,07,23,17,18,29.10
2006,07,23,17,19,29.10